weather.gov     
National Weather Service

Regional Weather Roundup
NWS Homepage
This page is being discontinued on March 12, 2014.
The same data is available at this site. Please update your bookmarks.
Thank you, and we apologize for the inconvenience.
Please send an email to SR-SRH.Webmaster@noaa.gov with any concerns.


Current Version
Previous Version:    01  02  03  04  05  06  07  08  09  10  11  12  13  14  15  16  17  18  19  20  21  22  23  24  25  26  27  28  29  30  
   31  32  33  34  35  36  37  38  39  40  41  42  43  44  45  46  47  48  49  50  51  52  53  
[Printable]
109
ASUS43 KGLD 250108
RWRGLD

GOODLAND FORECAST AREA HOURLY WEATHER ROUNDUP
NATIONAL WEATHER SERVICE GOODLAND KS
700 PM MDT THU JUL 24 2014

...OFFICIAL OBSERVATIONS...

CITY           SKY/WX    TMP DP  RH WIND       PRES   REMARKS
GOODLAND KS    CLOUDY    90  48  23 S10       29.89R
HILL CITY KS   MOCLDY    93  68  43 S17G28    29.85R
IMPERIAL NEB   CLOUDY    88  51  28 NW14      29.89R
MCCOOK NEB     PTSUNNY   92  53  26 S12       29.82R
AKRON CO       CLOUDY    86  47  25 N10       29.99S
BURLINGTON CO  CLOUDY    86  50  28 S6        29.92S
LIMON CO       CLOUDY    89  39  17 W7        30.01F
$$

...UNOFFICIAL OBSERVATIONS...

CITY           SKY/WX    TMP DP  RH WIND       PRES   REMARKS
COLBY KS       SUNNY     93  57  29 S17G24    29.88S
GOVE KS          N/A     93  32  11 MISG        N/A
LENORA KS        N/A     92  32  12 MISG        N/A
NORTON KS      CLEAR     91  61  35 SE16      29.84R
OBERLIN KS     FAIR      95  48  20 S14       29.84
SHARON SPRINGS   N/A     94  47  19 S15G23      N/A
TRIBUNE KS     MOSUNNY   95 N/A N/A SE24G33   29.91S
WAKEENEY KS      N/A     93  64  37 MISG        N/A
TRENTON NEB      N/A     92  32  12 S9          N/A
KIT CARSON CO    N/A     95  40  14 N5          N/A
WRAY CO          N/A     81  59  47 N17G24    29.92
YUMA CO          N/A     82  53  36 NE16        N/A
$$




U.S. Dept. of Commerce
NOAA National Weather Service
1325 East West Highway
Silver Spring, MD 20910
E-mail: w-nws.webmaster@noaa.gov
Page last modified: May 16, 2007
NATIONAL WEATHER SERVICE: for Safety, for Work, for Fun - FOR LIFE